Location: Unspecified
(43.4680°N, 87.1740°E)
Time: 07:41:21
(UTC+00:00)

NOSS 0 Rocket - Pass Details

Date: 04 August 2021
Orbit: 936 x 954 km, 70.0° (Epoch: 18 September)

Event Time Altitude Azimuth Distance (km) Brightness Sun altitude
Rises 14:13:15 0° 342° (NNW) 3,638 7.9 -7.7°
Reaches altitude 10° 14:18:08 10° 16° (NNE) 2,686 6.6 -8.4°
Maximum altitude 14:20:00 11° 33° (NNE) 2,586 6.2 -8.7°
Drops below altitude 10° 14:21:53 10° 51° (NE) 2,679 6.1 -9.0°
Enters shadow 14:26:09 - 82° (E) 3,474 6.5 -9.6°
